Other Public Products
Issued by NWS Charleston, SC

Current Version | Previous Version | Graphics & Text | Print | Product List | Glossary On
Versions: 1 2 3 4 5 6 7 8 9 10 11 12 13 14 15 16 17 18 19 20 21 22 23 24 25 26 27 28 29 30 31 32 33 34 35 36 37 38 39 40 41 42 43 44 45 46 47 48 49 50
000
FPUS82 KCHS 220712
OPUCHS

TEST...KCHS/KSAV Gateway Observations...TEST
National Weather Service Charleston SC
300 AM EDT SUN APR 22 2018

NOTE: "fair" indicates few or no clouds below 12,000 feet with no
significant weather and/or obstructions to visibility.

SCZ050-WAZ558-NCZ071-TXZ119-213-PAZ071-DCZ001-FLZ074-172-MI076-
NYZ176-178-MAZ016-IL014-TNZ027-NJZ106-GAZ044-MD014-220800-

...Gateway Observations for Charleston International...

CITY           SKY/WX    TMP DP  RH WIND       PRES   REMARKS
Chas Airport   FAIR      57  54  89 NE5       30.28F
Seattle        PTCLDY    48  36  63 NE15      30.40F
Charlotte      FAIR      51  43  74 SE5       30.32F
Dallas DFW     CLOUDY    52  49  89 N15G24    30.03S
Dallas Love    MOCLDY    54  48  80 N15G22    30.04R
Philladelphia  MOCLDY    45  36  70 CALM      30.39S
Wash National  CLOUDY    51  39  63 S7        30.38F
Baltimore      CLOUDY    47  36  65 CALM      30.37S
Miami          MOCLDY    77  73  87 E13       30.05F
Detroit        MOCLDY    39  24  55 CALM      30.40F
Newark         FAIR      49  20  31 N9        30.38R
Laguardia      MOCLDY    49  22  34 NW6       30.37R
J F K          FAIR      46  22  38 N6        30.38R
Boston Logan   FAIR      45  20  36 W6        30.32S
Ft. Lauderdale MOCLDY    78  73  84 E14       30.05F
Chicago O`Hare CLOUDY    44  21  40 NE7       30.35F
Chicago Midway CLOUDY    45  19  35 NE9       30.36F
Houston Bush   MOCLDY    69  68  96 NW3       29.92S
Houston Hobby  MOCLDY    69  69 100 W7        29.91R
Nashville      CLOUDY    61  39  44 S6        30.17F
Atlanta        MOCLDY    61  51  70 E8        30.23F

$$

GAZ044-118-TXZ119-213-NCZ071-DCZ001-MDZ014-506-PAZ021-071-NJZ106-
NYZ176-178-MAZ106-OHZ011-021-055-MIZ076-KYZ091-ILZ014-INZ047-
MNZ060-ONZ431-220800-

...Gateway Observations for Savannah International...

CITY           SKY/WX    TMP DP  RH WIND       PRES   REMARKS
Savannah Arpt  CLOUDY    63  57  81 NE5       30.25F
Atlanta        MOCLDY    61  51  70 E8        30.23F
Charlotte      FAIR      51  43  74 SE5       30.32F
Dallas DFW     CLOUDY    52  49  89 N15G24    30.03S
Houston Bush   MOCLDY    69  68  96 NW3       29.92S
Wash National  CLOUDY    51  39  63 S7        30.38F
Wash Dulles    CLOUDY    47  37  68 S5        30.37F
Baltimore      CLOUDY    47  36  65 CALM      30.37S
Philadelphia   MOCLDY    45  36  70 CALM      30.39S
Newark         FAIR      49  20  31 N9        30.38R
Laguardia      MOCLDY    49  22  34 NW6       30.37R
J F K          FAIR      46  22  38 N6        30.38R
Boston         FAIR      45  20  36 W6        30.32S
Pittsburg      MOCLDY    48  28  46 N7        30.33F
Akron          CLOUDY    43  25  49 NE7       30.35F
Cleveland      MOCLDY    39  33  79 CALM      30.39F
Cincinnati     CLOUDY    50  26  39 NE8       30.29F
Columbus       MOCLDY    45  27  50 NE6       30.31F
Detroit        MOCLDY    39  24  55 CALM      30.40F
Chicago O`Hare CLOUDY    44  21  40 NE7       30.35F
Minneapolis    FAIR      44  33  65 CALM      30.35S
Indianapolis   CLOUDY    50  25  37 E15       30.27F
Toronto Canada CLEAR     41  23  48 N7        30.39F

$$




USA.gov is the U.S. government's official web portal to all federal, state and local government web resources and services.